Regional Weather Roundup
Issued by NWS Upton, NY

Current Version | Previous Version | Text Only | Print | Product List | Glossary Off
Versions: 1 2 3 4 5 6 7 8 9 10 11 12 13 14 15 16 17 18 19 20 21 22 23 24 25 26 27 28 29 30 31 32 33 34 35 36 37 38 39 40 41 42 43 44 45 46 47 48 49 50
000 ASUS41 KOKX 201805 RWROKX REGIONAL WEATHER ROUNDUP NATIONAL WEATHER SERVICE NEW YORK NY 200 PM EDT MON OCT 20 2014 NOTE: "FAIR" INDICATES FEW OR NO CLOUDS BELOW 12,000 FEET WITH NO SIGNIFICANT WEATHER AND/OR OBSTRUCTIONS TO VISIBILITY. NYZ071-072-176-178-NJZ106-104-201900- NEW YORK CITY METRO AREA CITY SKY/WX TMP DP RH WIND PRES REMARKS CENTRAL PARK MOSUNNY 57 34 41 W7 30.06F LAGUARDIA APRT PTSUNNY 57 33 40 SW12G18 30.04F KENNEDY INTL PTSUNNY 59 35 40 SW13 30.06F NEWARK/LIBERTY PTSUNNY 59 35 40 SW7 30.04F BRNX BOT. GARD N/A 57 34 41 SW9 30.04F TETERBORO MOSUNNY 58 33 39 S13G18 30.03F $$ NYZ177-179-078>081-201900- LONG ISLAND NEW YORK CITY SKY/WX TMP DP RH WIND PRES REMARKS FARMINGDALE MOSUNNY 57 37 47 SW8 30.05F ISLIP PTSUNNY 57 38 48 SW10G22 30.04F SHIRLEY PTSUNNY 56 39 53 SW14G20 30.06F WESTHAMPTON PTSUNNY 56 38 50 SW15 30.07F MONTAUK POINT N/A 54 35 48 SW9 30.07S $$ NYZ052-065-067-201900- HUDSON VALLEY CITY SKY/WX TMP DP RH WIND PRES REMARKS WHITE PLAINS MOSUNNY 56 33 42 W9 30.02F NEWBURGH PTSUNNY 55 37 50 S9 30.00F MONTGOMERY PTSUNNY 56 35 45 W7 29.98F POUGHKEEPSIE PTSUNNY 56 34 43 VRB7 29.99F ALBANY PTSUNNY 52 34 50 S14 29.96F $$ NJZ001-105-106-008-010-013-015-019>022-104-201900- NEW JERSEY CITY SKY/WX TMP DP RH WIND PRES REMARKS NEWARK/LIBERTY PTSUNNY 59 35 40 SW7 30.04F TETERBORO MOSUNNY 58 33 39 S13G18 30.03F CALDWELL MOSUNNY 56 33 42 VRB7 30.03F MORRISTOWN CLOUDY 57 36 44 SW13 30.03F SOMERVILLE MOSUNNY 60 35 39 VRB3 30.02F SUSSEX PTSUNNY 58 35 42 SW9G18 30.00F ANDOVER N/A 56 34 43 SW8 30.01F TRENTON MOSUNNY 60 37 42 SW10 30.03F MILLVILLE PTSUNNY 61 37 41 S9 30.04F ATLANTIC CITY PTSUNNY 62 37 39 S9 30.04F WRIGHTSTOWN MOSUNNY 61 37 41 SW9 30.01F TOMS RIVER MOSUNNY 63 34 34 SW8 30.04F BELMAR SUNNY 61 36 39 SW15G22 30.03F $$ PAZ047>061-062-071-201900- EASTERN PENNSYLVANIA CITY SKY/WX TMP DP RH WIND PRES REMARKS PHILADELPHIA PTSUNNY 62 37 39 S10G21 30.03F ALLENTOWN MOSUNNY 56 37 49 S9 30.02F SCRANTON CLOUDY 52 35 52 CALM 29.96F $$ CTZ002-004>006-009-010-012-RIZ004-006-007-MAZ004-011-015-201900- SOUTHERN NEW ENGLAND IN CT CITY SKY/WX TMP DP RH WIND PRES REMARKS BRADLEY INTL PTSUNNY 57 34 41 S14 29.99F HARTFORD PTSUNNY 54 34 46 SW13G22 30.02F DANBURY PTSUNNY 54 31 41 SW9 30.02F WTRBRY/OXFORD MOSUNNY 52 34 50 SW5 30.01F BRIDGEPORT PTSUNNY 57 36 45 SW13 30.05F MERIDEN MOSUNNY 55 35 47 SW7 30.03F NEW HAVEN PTSUNNY 57 38 48 SW7G17 30.04F CHESTER FAIR 52 37 58 SW8G16 30.04F GROTON PTSUNNY 53 41 63 W14 30.04F WILLIMANTIC MOSUNNY 55 32 41 VRB6 30.02F IN RI CITY SKY/WX TMP DP RH WIND PRES REMARKS PROVIDENCE MOSUNNY 56 31 38 SW10 30.02F BLOCK ISLAND MOSUNNY 54 34 47 W10 30.04F WESTERLY MOSUNNY 53 38 56 W12G18 30.04F IN MA CITY SKY/WX TMP DP RH WIND PRES REMARKS BOSTON MOSUNNY 55 31 39 SW12 29.98F WORCESTER SUNNY 50 30 46 SW14 29.98F WESTFIELD MOSUNNY 57 33 40 S10 29.97F PROVINCETOWN SUNNY 54 32 43 SW14 30.01F NANTUCKET SUNNY 54 38 54 W20G26 30.03F $$ ANZ330-335-338-340-345-350-353-355-201900- COASTAL MARINE OBSERVATIONS STATION/POSITION TIME SKY/WX TEMP WIND PRES VSBY WAVE AIR SEA DIR/SP/G HT/PER (UTC) (F) (DEG/KT/KT) (MB) (MI) (FT/S) NY HARB ENTRANCE NOT AVBL 4S FIRE IS 1800 64 N/A 2/10 20S FIRE ISLAND 1800 56 64 210/ 12/ 16 1018.1 2/13 23SW MTP 1800 N/A 2/ 9 HUDSON CANYON 1800 56 66 230/ 14/ 16 1018.5 2/10 EXECUTION ROCKS 1800 57 64 220/ 12/ 16 N/A WESTERN LI SOUND 1700 54 220/ 10/ 16 N/A 1 CENTRAL LI SOUND 1700 53 64 230/ 14/ 16 N/A 2/ 3 EASTERN LI SOUND 1700 53 64 250/ 16/ 21 N/A ROBBINS REEF 1800 56 210/ 8/ 10 1016.1 $$ >>>>>>>>>>>>>>>>>>>>>>>>>>>> KEY <<<<<<<<<<<<<<<<<<<<<<<<<<< > < > SKY/WX - SKY CONDITION/PRESENT WEATHER < > TMP - TEMPERATURE IN FAHRENHEIT < > DP - DEWPOINT IN FAHRENHEIT < > RH - RELATIVE HUMIDITY IN PERCENT < > WIND - DIRECTION AND SPEED IN MPH < > PRES - MEAN SEA LEVEL PRESSURE IN INCHES OF HG < > WCI - WIND CHILL INDEX < > VSB - VISIBILITY IN MILES < > HX - HEAT INDEX < > TC - TEMPERATURE IN CELSIUS < > VRB - VARIABLE WIND DIRECTION < > < >>>>>>>>>>>>>>>>>>>>>>>>>>>> KEY <<<<<<<<<<<<<<<<<<<<<<<<<<<

USA.gov is the U.S. government's official web portal to all federal, state and local government web resources and services.